Estación de La capilla
Ultimos registro cada 15 minutos 59
| N° | Estación | Fecha / Hora | Temperatura | Humedad | Lluvia | Velocidad | Dirección | Radiación | Presion |
| 59 | La capilla | 10-05-2026 14:30 | 19,7 | 45 | 0 | 4,5 | 355 | 156 | 1087,7 |
| 58 | La capilla | 10-05-2026 14:15 | 19,7 | 44 | 0 | 2,2 | 334 | 432 | 1087,8 |
| 57 | La capilla | 10-05-2026 14:00 | 19,6 | 45 | 0 | 2,7 | 360 | 513 | 1088,1 |
| 56 | La capilla | 10-05-2026 13:45 | 19,3 | 45 | 0 | 2,7 | 360 | 529 | 1088,4 |
| 55 | La capilla | 10-05-2026 13:30 | 18,7 | 45 | 0 | 1,3 | 360 | 543 | 1088,5 |
| 54 | La capilla | 10-05-2026 13:15 | 18,3 | 47 | 0 | 1,8 | 360 | 554 | 1088,9 |
| 53 | La capilla | 10-05-2026 13:00 | 18,1 | 45 | 0 | 1,8 | 360 | 455 | 1089,3 |
| 52 | La capilla | 10-05-2026 12:45 | 18 | 45 | 0 | 4 | 311 | 204 | 1089,4 |
| 51 | La capilla | 10-05-2026 12:30 | 17,6 | 46 | 0 | 4 | 360 | 290 | 1089,7 |
| 50 | La capilla | 10-05-2026 12:15 | 17,2 | 46 | 0 | 1,8 | 315 | 455 | 1089,9 |
| 49 | La capilla | 10-05-2026 12:00 | 16,8 | 47 | 0 | 0,4 | 325 | 529 | 1090,1 |
| 48 | La capilla | 10-05-2026 11:45 | 16,3 | 47 | 0 | 2,2 | 13 | 538 | 1090,2 |
| 47 | La capilla | 10-05-2026 11:30 | 15,9 | 49 | 0 | 3,1 | 304 | 526 | 1090,6 |
| 46 | La capilla | 10-05-2026 11:15 | 15,4 | 48 | 0 | 3,6 | 346 | 506 | 1090,8 |
| 45 | La capilla | 10-05-2026 11:00 | 14,9 | 49 | 0 | 4 | 9 | 482 | 1090,9 |
| 44 | La capilla | 10-05-2026 10:45 | 14,8 | 48 | 0 | 2,7 | 348 | 441 | 1091 |
| 43 | La capilla | 10-05-2026 10:30 | 14,4 | 50 | 0 | 1,8 | 317 | 88 | 1090,7 |
| 42 | La capilla | 10-05-2026 10:15 | 14,3 | 50 | 0 | 3,6 | 355 | 42 | 1090,7 |
| 41 | La capilla | 10-05-2026 10:00 | 13,9 | 49 | 0 | 2,7 | 329 | 32 | 1090,8 |
| 40 | La capilla | 10-05-2026 09:45 | 13,5 | 50 | 0 | 4,5 | 324 | 332 | 1090,9 |
| 39 | La capilla | 10-05-2026 09:30 | 12,9 | 51 | 0 | 4,5 | 347 | 297 | 1090,9 |
| 38 | La capilla | 10-05-2026 09:15 | 12,5 | 51 | 0 | 4,5 | 12 | 116 | 1091,1 |
| 37 | La capilla | 10-05-2026 09:00 | 11,9 | 52 | 0 | 2,7 | 360 | 113 | 1091,2 |
| 36 | La capilla | 10-05-2026 08:45 | 11,4 | 52 | 0 | 3,6 | 360 | 23 | 1091,3 |
| 35 | La capilla | 10-05-2026 08:30 | 11 | 52 | 0 | 0,9 | 360 | 132 | 1091,5 |
| 34 | La capilla | 10-05-2026 08:15 | 10,7 | 53 | 0 | 4 | 360 | 14 | 1091,4 |
| 33 | La capilla | 10-05-2026 08:00 | 10,6 | 52 | 0 | 3,6 | 360 | 11 | 1091,4 |
| 32 | La capilla | 10-05-2026 07:45 | 10,5 | 52 | 0 | 3,6 | 360 | 7 | 1091,3 |
| 31 | La capilla | 10-05-2026 07:30 | 10,4 | 53 | 0 | 4,9 | 360 | 0 | 1091,5 |
| 30 | La capilla | 10-05-2026 07:15 | 10,3 | 53 | 0 | 2,2 | 360 | 0 | 1091,4 |
| 29 | La capilla | 10-05-2026 07:00 | 10,7 | 52 | 0 | 1,8 | 360 | 0 | 1091,6 |
| 28 | La capilla | 10-05-2026 06:45 | 10,6 | 52 | 0 | 4,9 | 360 | 0 | 1091,5 |
| 27 | La capilla | 10-05-2026 06:30 | 10,6 | 53 | 0 | 2,2 | 360 | 0 | 1091,7 |
| 26 | La capilla | 10-05-2026 06:15 | 10,8 | 52 | 0 | 2,7 | 360 | 0 | 1091,5 |
| 25 | La capilla | 10-05-2026 06:00 | 10,8 | 52 | 0 | 4,5 | 360 | 0 | 1091,3 |
| 24 | La capilla | 10-05-2026 05:45 | 10,8 | 52 | 0 | 2,7 | 360 | 0 | 1091,4 |
| 23 | La capilla | 10-05-2026 05:30 | 10,7 | 53 | 0 | 1,8 | 360 | 0 | 1091,4 |
| 22 | La capilla | 10-05-2026 05:15 | 10,5 | 53 | 0 | 3,6 | 360 | 0 | 1091,3 |
| 21 | La capilla | 10-05-2026 05:00 | 10,3 | 55 | 0 | 5,4 | 360 | 0 | 1091,3 |
| 20 | La capilla | 10-05-2026 04:45 | 10,2 | 55 | 0 | 4 | 360 | 0 | 1091,3 |
| 19 | La capilla | 10-05-2026 04:30 | 10,2 | 55 | 0 | 1,3 | 360 | 0 | 1091,2 |
| 18 | La capilla | 10-05-2026 04:15 | 10,4 | 55 | 0 | 1,8 | 360 | 0 | 1091,3 |
| 17 | La capilla | 10-05-2026 04:00 | 10,4 | 55 | 0 | 1,8 | 360 | 0 | 1091,6 |
| 16 | La capilla | 10-05-2026 03:45 | 10,7 | 55 | 0 | 2,7 | 360 | 0 | 1091,4 |
| 15 | La capilla | 10-05-2026 03:30 | 10,7 | 55 | 0 | 4,5 | 360 | 0 | 1091,6 |
| 14 | La capilla | 10-05-2026 03:15 | 10,6 | 56 | 0 | 3,6 | 360 | 0 | 1091,8 |
| 13 | La capilla | 10-05-2026 03:00 | 10,4 | 57 | 0 | 4,5 | 360 | 0 | 1092,1 |
| 12 | La capilla | 10-05-2026 02:45 | 10,3 | 59 | 0 | 4,5 | 360 | 0 | 1092,2 |
| 11 | La capilla | 10-05-2026 02:30 | 10,6 | 58 | 0 | 2,2 | 360 | 0 | 1092,2 |
| 10 | La capilla | 10-05-2026 02:15 | 10,7 | 58 | 0 | 4 | 360 | 0 | 1092,2 |
| 9 | La capilla | 10-05-2026 02:00 | 10,8 | 57 | 0 | 4,9 | 360 | 0 | 1092,2 |
| 8 | La capilla | 10-05-2026 01:45 | 10,8 | 57 | 0 | 4,9 | 360 | 0 | 1092,3 |
| 7 | La capilla | 10-05-2026 01:30 | 10,9 | 56 | 0 | 2,7 | 360 | 0 | 1092,2 |
| 6 | La capilla | 10-05-2026 01:15 | 11,1 | 56 | 0 | 4,9 | 360 | 0 | 1092,3 |
| 5 | La capilla | 10-05-2026 01:00 | 11,3 | 55 | 0 | 4,5 | 360 | 0 | 1092,5 |
| 4 | La capilla | 10-05-2026 00:45 | 11,5 | 54 | 0 | 4 | 360 | 0 | 1092,6 |
| 3 | La capilla | 10-05-2026 00:30 | 11,4 | 54 | 0 | 4,9 | 360 | 0 | 1092,8 |
| 2 | La capilla | 10-05-2026 00:15 | 11,4 | 54 | 0 | 2,7 | 360 | 0 | 1093 |
| 1 | La capilla | 10-05-2026 00:00 | 11,6 | 53 | 0 | 4,9 | 360 | 0 | 1093,1 |